GW4812 Weather Reports


Display with metric or nautical units.
time (UTC)temp
F
wind
direction
speed
MPH
gust
MPH
rain 1hr
in
rain 24hr
in
rain mn
in
humidity
%
barometer
mb
20260509012552 55 250 0.0 1.0 0.00 0.00 0.02 67 1013.0
20260509012052 55 0 0.0 0.0 0.00 0.00 0.02 67 1013.0
20260509011553 55 248 0.0 0.0 0.00 0.00 0.02 66 1012.0
20260509011053 55 192 0.0 0.0 0.00 0.00 0.02 66 1012.0
20260509010552 55 279 0.0 0.0 0.00 0.00 0.02 66 1012.0
20260509010052 55 0 0.0 0.0 0.00 0.00 0.02 66 1012.0
20260509005552 55 0 0.0 0.0 0.00 0.00 0.02 66 1012.0
20260509005054 56 254 0.0 0.0 0.00 0.00 0.02 65 1012.0
20260509004552 56 202 0.0 1.0 0.00 0.00 0.02 65 1012.0
20260509004053 56 263 0.0 1.0 0.00 0.00 0.02 64 1012.0
20260509003552 56 246 0.0 1.0 0.00 0.00 0.02 64 1012.0
20260509003057 56 237 0.0 0.0 0.00 0.00 0.02 63 1012.0
20260509002552 56 193 0.0 1.0 0.00 0.00 0.02 63 1012.0
20260509002052 57 0 0.0 0.0 0.00 0.00 0.02 63 1012.0
20260509001553 57 0 0.0 0.0 0.00 0.00 0.02 63 1012.0
20260509001052 57 253 1.0 2.0 0.00 0.00 0.02 63 1012.0
20260509000552 57 0 0.0 0.0 0.00 0.00 0.02 63 1012.0
20260509000052 58 0 0.0 0.0 0.00 0.00 0.02 62 1012.0
20260508235553 58 243 0.0 0.0 0.00 0.00 0.02 60 1012.0
20260508235052 58 0 0.0 0.0 0.00 0.00 0.02 60 1012.0
20260508234552 58 0 0.0 0.0 0.00 0.00 0.02 60 1012.0
20260508234052 59 221 0.0 0.0 0.00 0.00 0.02 59 1012.0
20260508233554 59 0 0.0 0.0 0.00 0.00 0.02 57 1012.0
20260508233052 59 262 0.0 0.0 0.00 0.00 0.02 57 1012.0
20260508232552 59 0 0.0 0.0 0.00 0.00 0.02 57 1011.0
20260508232052 59 0 0.0 0.0 0.00 0.00 0.02 56 1011.0
20260508231553 60 279 0.0 1.0 0.00 0.00 0.02 56 1011.0
20260508231052 60 261 0.0 0.0 0.00 0.00 0.02 55 1011.0
20260508230552 60 295 0.0 1.0 0.00 0.00 0.02 55 1011.0
20260508230052 60 174 0.0 0.0 0.00 0.00 0.02 54 1011.0
20260508225553 60 0 0.0 0.0 0.00 0.00 0.02 53 1011.0
20260508225052 60 295 0.0 0.0 0.00 0.00 0.02 53 1011.0
20260508224553 61 0 0.0 0.0 0.00 0.00 0.02 52 1011.0
20260508224053 61 159 2.0 3.0 0.00 0.00 0.02 50 1011.0
20260508223553 61 87 0.0 0.0 0.00 0.00 0.02 49 1011.0
20260508223053 61 25 0.0 1.0 0.00 0.00 0.02 50 1011.0
20260508222552 62 274 0.0 1.0 0.00 0.00 0.02 50 1011.0
20260508222053 62 246 1.0 2.0 0.00 0.00 0.02 49 1011.0
20260508221552 62 256 0.0 1.0 0.00 0.00 0.02 51 1011.0
20260508221052 62 191 0.0 2.0 0.00 0.00 0.02 49 1011.0
20260508220110 62 326 0.0 1.0 0.00 0.00 0.02 49 1011.0
20260508215555 62 217 1.0 2.0 0.00 0.00 0.02 49 1011.0
20260508215052 62 192 0.0 1.0 0.00 0.00 0.02 51 1011.0
20260508214552 62 178 0.0 3.0 0.00 0.00 0.02 48 1011.0
20260508214052 62 0 0.0 0.0 0.00 0.00 0.02 48 1011.0
20260508213553 62 247 2.0 3.0 0.00 0.00 0.02 47 1011.0
20260508213052 61 181 0.0 2.0 0.00 0.00 0.02 48 1011.0
20260508212554 61 195 2.0 3.0 0.00 0.00 0.02 49 1011.0
20260508212053 61 219 2.0 4.0 0.00 0.00 0.02 48 1011.0
20260508211553 62 239 2.0 3.0 0.00 0.00 0.02 49 1011.0
20260508211053 62 61 0.0 1.0 0.00 0.00 0.02 48 1011.0
20260508210552 62 191 1.0 2.0 0.00 0.00 0.02 46 1011.0
20260508210052 62 64 1.0 2.0 0.00 0.00 0.02 46 1011.0
20260508205553 62 45 1.0 2.0 0.00 0.00 0.02 47 1011.0
20260508205052 62 231 2.0 4.0 0.00 0.00 0.02 47 1011.0
20260508204553 61 37 2.0 3.0 0.00 0.00 0.02 48 1011.0
20260508204053 60 209 2.0 5.0 0.00 0.00 0.02 48 1011.0
20260508203553 60 347 1.0 3.0 0.00 0.00 0.02 51 1012.0
20260508203052 60 300 0.0 1.0 0.00 0.00 0.02 49 1012.0
20260508202553 60 136 0.0 2.0 0.00 0.00 0.02 48 1012.0
20260508202053 60 55 1.0 2.0 0.00 0.00 0.02 48 1012.0
20260508201552 60 274 1.0 2.0 0.00 0.00 0.02 48 1011.0
20260508201055 60 209 2.0 4.0 0.00 0.00 0.02 47 1012.0
20260508200552 60 299 1.0 2.0 0.00 0.00 0.02 47 1012.0
20260508200052 60 258 2.0 6.0 0.00 0.00 0.02 46 1012.0
20260508195552 61 347 3.0 5.0 0.00 0.00 0.02 45 1011.0
20260508195053 61 236 0.0 1.0 0.00 0.00 0.02 45 1011.0
20260508194553 61 194 2.0 6.0 0.00 0.00 0.02 45 1011.0
20260508194053 61 223 2.0 4.0 0.00 0.00 0.02 44 1011.0
20260508193553 62 272 1.0 2.0 0.00 0.00 0.02 44 1011.0
20260508193052 62 238 2.0 6.0 0.00 0.00 0.02 43 1011.0
20260508192553 62 196 2.0 4.0 0.00 0.00 0.02 42 1011.0
20260508192053 62 180 4.0 6.0 0.00 0.00 0.02 41 1011.0
20260508191552 61 210 3.0 5.0 0.00 0.00 0.02 43 1011.0
20260508191052 61 179 2.0 5.0 0.00 0.00 0.02 42 1011.0
20260508190553 61 46 2.0 4.0 0.00 0.00 0.02 42 1011.0
20260508190053 62 226 3.0 6.0 0.00 0.00 0.02 42 1011.0
20260508185552 62 186 4.0 6.0 0.00 0.00 0.02 41 1011.0
20260508185053 62 144 2.0 3.0 0.00 0.00 0.02 43 1011.0
20260508184552 62 242 3.0 5.0 0.00 0.00 0.02 42 1011.0
20260508184052 61 335 3.0 7.0 0.00 0.00 0.02 45 1011.0
20260508183553 61 264 2.0 4.0 0.00 0.00 0.02 44 1011.0
20260508183053 61 282 2.0 4.0 0.00 0.00 0.02 44 1012.0
20260508182552 61 136 0.0 2.0 0.00 0.00 0.02 44 1011.0
20260508182053 61 271 2.0 4.0 0.00 0.00 0.02 43 1011.0
20260508181553 61 220 2.0 4.0 0.00 0.00 0.02 45 1011.0
20260508181052 61 50 3.0 4.0 0.00 0.00 0.02 44 1011.0
20260508180552 61 235 2.0 4.0 0.00 0.00 0.02 45 1011.0
20260508180053 61 4 1.0 2.0 0.00 0.00 0.02 48 1012.0
20260508175552 60 37 1.0 3.0 0.00 0.00 0.02 46 1012.0
20260508175052 59 301 1.0 2.0 0.00 0.00 0.02 47 1012.0
20260508174553 59 242 2.0 3.0 0.00 0.00 0.02 45 1012.0
20260508174052 59 233 0.0 2.0 0.00 0.00 0.02 48 1012.0
20260508173552 59 125 2.0 2.0 0.00 0.00 0.02 47 1012.0
20260508173053 59 290 1.0 3.0 0.00 0.00 0.02 45 1012.0
20260508172552 59 233 1.0 4.0 0.00 0.00 0.02 46 1012.0
20260508172052 59 51 3.0 6.0 0.00 0.00 0.02 46 1012.0
20260508171553 59 206 3.0 5.0 0.00 0.00 0.02 44 1012.0
20260508171053 58 214 1.0 4.0 0.00 0.00 0.02 44 1012.0
20260508170552 59 215 3.0 6.0 0.00 0.00 0.02 44 1012.0
20260508170054 59 207 2.0 4.0 0.00 0.00 0.02 44 1012.0
20260508165553 59 218 1.0 4.0 0.00 0.00 0.02 45 1012.0
20260508165052 59 187 3.0 5.0 0.00 0.00 0.02 44 1012.0
20260508164553 58 30 1.0 2.0 0.00 0.00 0.02 46 1012.0
20260508164053 58 211 2.0 4.0 0.00 0.00 0.02 43 1012.0
20260508163553 58 298 2.0 3.0 0.00 0.00 0.02 43 1013.0
20260508163053 58 223 2.0 3.0 0.00 0.00 0.02 45 1013.0
20260508162552 58 351 2.0 4.0 0.00 0.00 0.02 44 1013.0
20260508162052 58 243 2.0 4.0 0.00 0.00 0.02 46 1013.0
20260508161552 57 284 1.0 2.0 0.00 0.00 0.02 44 1013.0
20260508161053 57 74 1.0 5.0 0.00 0.00 0.02 47 1013.0
20260508160552 57 186 2.0 4.0 0.00 0.00 0.02 46 1013.0
20260508160052 57 269 2.0 3.0 0.00 0.00 0.02 45 1013.0
20260508155554 57 301 2.0 4.0 0.00 0.00 0.02 48 1013.0
20260508155052 56 77 1.0 2.0 0.00 0.00 0.02 46 1013.0
20260508154554 56 150 3.0 4.0 0.00 0.00 0.02 47 1013.0
20260508154053 56 250 3.0 6.0 0.00 0.00 0.02 47 1013.0
20260508153553 56 10 0.0 2.0 0.00 0.00 0.02 48 1013.0
20260508153053 55 305 0.0 2.0 0.00 0.00 0.02 48 1013.0
20260508152552 56 223 2.0 5.0 0.00 0.00 0.02 46 1013.0
20260508152052 56 72 2.0 5.0 0.00 0.00 0.02 46 1013.0
20260508151554 56 50 1.0 3.0 0.00 0.00 0.02 46 1013.0
20260508151053 56 210 2.0 4.0 0.00 0.00 0.02 45 1013.0
20260508150552 56 220 2.0 3.0 0.00 0.00 0.02 47 1013.0
20260508150054 56 260 1.0 2.0 0.00 0.00 0.02 47 1013.0
20260508145552 56 266 2.0 4.0 0.00 0.00 0.02 47 1013.0
20260508145052 56 254 3.0 5.0 0.00 0.00 0.02 47 1013.0
20260508144553 57 272 2.0 4.0 0.00 0.00 0.02 47 1013.0
20260508144053 57 77 2.0 3.0 0.00 0.00 0.02 46 1013.0
20260508143552 57 199 2.0 4.0 0.00 0.00 0.02 46 1013.0
20260508143053 56 268 3.0 6.0 0.00 0.00 0.02 49 1013.0
20260508142552 56 247 2.0 2.0 0.00 0.00 0.02 50 1013.0
20260508142053 55 225 1.0 4.0 0.00 0.00 0.02 50 1013.0
20260508141552 55 258 1.0 2.0 0.00 0.00 0.02 49 1013.0
20260508141053 55 232 1.0 4.0 0.00 0.00 0.02 48 1013.0
20260508140552 56 276 1.0 2.0 0.00 0.00 0.02 50 1013.0
20260508140053 56 219 1.0 2.0 0.00 0.00 0.02 48 1013.0
20260508135552 56 228 2.0 3.0 0.00 0.00 0.02 48 1013.0
20260508135053 56 244 0.0 1.0 0.00 0.00 0.02 52 1013.0
20260508134553 56 187 3.0 6.0 0.00 0.00 0.02 54 1013.0
20260508134053 55 67 1.0 3.0 0.00 0.00 0.02 53 1013.0
20260508133553 55 333 0.0 2.0 0.00 0.00 0.02 53 1013.0
20260508133053 55 251 1.0 3.0 0.00 0.00 0.02 54 1013.0
20260508132553 55 289 0.0 2.0 0.00 0.00 0.02 54 1013.0
20260508132053 55 245 2.0 4.0 0.00 0.00 0.02 55 1013.0
20260508131553 55 221 1.0 3.0 0.00 0.00 0.02 57 1013.0
20260508131053 54 152 1.0 3.0 0.00 0.00 0.02 55 1013.0
20260508130553 54 344 1.0 2.0 0.00 0.00 0.02 58 1013.0
20260508130052 53 181 1.0 6.0 0.00 0.00 0.02 59 1013.0
20260508125552 53 69 1.0 2.0 0.00 0.00 0.02 60 1013.0
20260508125053 53 14 1.0 2.0 0.00 0.00 0.02 61 1013.0
20260508124553 52 204 2.0 3.0 0.00 0.00 0.02 63 1013.0
20260508124052 52 295 2.0 4.0 0.00 0.00 0.02 65 1013.0
20260508123553 52 255 1.0 4.0 0.00 0.00 0.02 65 1013.0
20260508123053 51 270 2.0 2.0 0.00 0.00 0.02 67 1013.0
20260508122554 51 206 2.0 4.0 0.00 0.00 0.02 69 1013.0
20260508122052 51 253 2.0 4.0 0.00 0.00 0.02 69 1013.0
20260508121552 51 71 0.0 2.0 0.00 0.00 0.02 69 1013.0
20260508121053 51 257 2.0 3.0 0.00 0.00 0.02 71 1013.0
20260508120553 51 228 2.0 5.0 0.00 0.00 0.02 71 1013.0
20260508120055 50 251 0.0 2.0 0.00 0.00 0.02 75 1013.0
20260508115553 49 260 1.0 2.0 0.00 0.00 0.02 77 1013.0
20260508115053 48 240 1.0 2.0 0.00 0.00 0.02 79 1013.0
20260508114105 47 256 1.0 2.0 0.00 0.00 0.02 82 1013.0
20260508113553 46 264 2.0 3.0 0.00 0.00 0.02 83 1013.0
20260508113054 45 201 1.0 1.0 0.00 0.00 0.02 86 1013.0
20260508112552 44 232 1.0 2.0 0.00 0.00 0.02 87 1013.0
20260508112052 44 270 1.0 2.0 0.00 0.00 0.02 90 1013.0
20260508111553 43 245 1.0 2.0 0.00 0.00 0.02 93 1013.0
20260508111053 42 269 2.0 3.0 0.00 0.00 0.02 93 1013.0
20260508110553 42 234 1.0 1.0 0.00 0.00 0.02 93 1013.0
20260508110052 41 0 0.0 0.0 0.00 0.00 0.02 93 1013.0
20260508105554 41 0 0.0 0.0 0.00 0.00 0.02 93 1013.0
20260508105053 41 239 0.0 1.0 0.00 0.00 0.02 93 1013.0
20260508104552 41 259 2.0 2.0 0.00 0.00 0.02 93 1013.0
20260508104053 40 274 0.0 1.0 0.00 0.00 0.02 93 1013.0
20260508103552 40 241 1.0 1.0 0.00 0.00 0.02 92 1013.0
20260508103052 40 259 2.0 2.0 0.00 0.00 0.02 92 1013.0
20260508102553 41 228 1.0 1.0 0.00 0.00 0.02 92 1013.0
20260508102053 41 231 1.0 1.0 0.00 0.00 0.02 92 1013.0
20260508101552 41 272 0.0 1.0 0.00 0.00 0.02 92 1013.0
20260508101052 41 79 0.0 0.0 0.00 0.00 0.02 91 1013.0
20260508100553 41 185 0.0 1.0 0.00 0.00 0.02 91 1012.0
20260508100056 41 249 1.0 1.0 0.00 0.00 0.02 91 1012.0
20260508095556 41 256 0.0 0.0 0.00 0.00 0.02 91 1012.0
20260508095052 41 79 0.0 0.0 0.00 0.00 0.02 90 1012.0
20260508094553 42 101 0.0 1.0 0.00 0.00 0.02 90 1012.0
20260508094052 42 270 1.0 2.0 0.00 0.00 0.02 90 1012.0
20260508093552 42 248 1.0 1.0 0.00 0.00 0.02 90 1012.0
20260508093053 42 0 0.0 0.0 0.00 0.00 0.02 90 1012.0
20260508092552 42 277 0.0 1.0 0.00 0.00 0.02 90 1012.0
20260508092052 43 217 0.0 1.0 0.00 0.00 0.02 89 1012.0
20260508091553 43 262 1.0 2.0 0.00 0.00 0.02 89 1012.0
20260508091052 43 222 1.0 1.0 0.00 0.00 0.02 89 1012.0
20260508090554 44 248 1.0 1.0 0.00 0.00 0.02 89 1012.0
20260508090053 44 266 1.0 2.0 0.00 0.00 0.02 89 1012.0
20260508085552 44 257 1.0 1.0 0.00 0.00 0.02 88 1012.0
20260508085053 44 156 0.0 1.0 0.00 0.00 0.02 88 1012.0
20260508084553 45 277 1.0 1.0 0.00 0.00 0.02 87 1012.0
20260508084053 45 297 1.0 1.0 0.00 0.00 0.02 85 1012.0
20260508083554 45 0 0.0 0.0 0.00 0.00 0.02 85 1012.0
20260508083053 45 288 0.0 1.0 0.00 0.00 0.02 85 1012.0
20260508082552 46 0 0.0 0.0 0.00 0.00 0.02 85 1012.0
20260508082053 46 0 0.0 0.0 0.00 0.00 0.02 84 1012.0
20260508081552 46 223 0.0 1.0 0.00 0.00 0.02 84 1012.0
20260508081052 46 0 0.0 0.0 0.00 0.00 0.02 85 1012.0
20260508080557 46 282 0.0 0.0 0.00 0.00 0.02 85 1011.0
20260508080052 46 245 2.0 2.0 0.00 0.00 0.02 84 1011.0
20260508075553 46 341 0.0 0.0 0.03 0.00 0.01 82 1012.0
20260508075053 46 318 0.0 1.0 0.00 0.00 0.01 82 1012.0
20260508074553 46 295 1.0 1.0 0.00 0.00 0.01 81 1012.0
20260508074052 46 279 0.0 1.0 0.00 0.00 0.01 81 1012.0
20260508073552 46 299 2.0 3.0 0.00 0.00 0.01 80 1012.0
20260508073052 46 334 1.0 1.0 0.00 0.00 0.01 80 1012.0
20260508072552 46 120 1.0 2.0 0.00 0.00 0.01 80 1012.0
20260508072053 46 54 0.0 0.0 0.00 0.00 0.01 81 1012.0
20260508071552 46 338 1.0 1.0 0.00 0.00 0.01 82 1012.0
20260508071052 46 5 0.0 1.0 0.00 0.00 0.01 82 1012.0
20260508070553 46 291 1.0 2.0 0.00 0.00 0.01 83 1011.0
20260508070052 46 296 1.0 2.0 0.00 0.00 0.01 82 1011.0
20260508065553 46 176 0.0 1.0 0.00 0.00 0.01 82 1011.0
20260508065053 46 252 1.0 1.0 0.00 0.00 0.01 81 1011.0
20260508064552 47 0 0.0 0.0 0.00 0.00 0.01 81 1011.0
20260508064052 47 0 0.0 0.0 0.00 0.00 0.01 80 1011.0
20260508063555 47 0 0.0 0.0 0.00 0.00 0.01 81 1011.0
20260508063052 47 329 0.0 1.0 0.00 0.00 0.01 80 1012.0
20260508062552 47 314 1.0 1.0 0.00 0.00 0.01 81 1011.0
20260508062052 47 0 0.0 0.0 0.00 0.00 0.02 81 1011.0
20260508061553 47 264 0.0 1.0 0.00 0.00 0.02 79 1011.0
20260508061052 47 0 0.0 0.0 0.00 0.00 0.02 79 1011.0
20260508060553 48 155 0.0 1.0 0.00 0.00 0.02 78 1011.0
20260508060053 48 163 0.0 1.0 0.00 0.00 0.02 78 1011.0
20260508055552 48 164 1.0 1.0 0.00 0.00 0.02 79 1012.0
20260508055052 49 341 1.0 2.0 0.00 0.00 0.01 76 1012.0
20260508054553 49 168 0.0 1.0 0.01 0.00 0.01 74 1012.0
20260508054052 50 224 0.0 0.0 0.00 0.00 0.01 72 1012.0
20260508053552 50 343 0.0 1.0 0.06 0.00 0.00 69 1012.0
20260508053053 50 277 2.0 4.0 0.02 0.00 0.00 68 1011.0
20260508052553 49 31 1.0 2.0 0.01 0.00 0.00 62 1011.0
20260508052053 49 352 0.0 0.0 0.00 0.00 0.00 66 1011.0
20260508051552 48 331 0.0 0.0 0.00 0.00 0.00 69 1011.0
20260508051052 47 325 0.0 1.0 0.00 0.00 0.00 74 1010.0
20260508050553 47 0 0.0 0.0 0.00 0.00 0.00 75 1010.0
20260508050053 47 276 0.0 1.0 0.00 0.00 0.00 75 1010.0
20260508045553 47 0 0.0 0.0 0.00 0.00 0.00 75 1010.0
20260508045054 48 224 1.0 1.0 0.00 0.00 0.00 74 1010.0
20260508044553 48 76 0.0 1.0 0.00 0.00 0.00 74 1010.0
20260508044052 48 284 0.0 0.0 0.00 0.00 0.00 75 1009.0
20260508043552 48 186 1.0 1.0 0.00 0.00 0.00 74 1009.0
20260508043054 48 184 0.0 0.0 0.00 0.00 0.00 76 1010.0
20260508042553 47 0 0.0 0.0 0.00 0.00 0.00 76 1010.0
20260508042052 47 271 0.0 0.0 0.00 0.00 0.00 75 1010.0
20260508041553 47 260 1.0 1.0 0.00 0.00 0.00 74 1010.0
20260508041053 47 206 0.0 1.0 0.00 0.00 0.00 75 1010.0
20260508040559 47 0 0.0 0.0 0.00 0.00 0.00 75 1010.0
20260508040052 47 0 0.0 0.0 0.00 0.00 0.15 75 1010.0
20260508035552 47 203 1.0 1.0 0.00 0.00 0.15 75 1010.0
20260508035053 47 318 0.0 1.0 0.00 0.00 0.15 75 1010.0
20260508034553 47 271 0.0 1.0 0.00 0.00 0.15 74 1009.0
20260508034053 47 273 1.0 1.0 0.00 0.00 0.15 74 1009.0
20260508033552 46 264 1.0 1.0 0.00 0.00 0.15 73 1009.0
20260508033052 46 0 0.0 0.0 0.00 0.00 0.15 73 1009.0
20260508032552 46 282 2.0 2.0 0.00 0.00 0.15 74 1009.0
20260508032053 46 239 1.0 1.0 0.00 0.00 0.15 75 1009.0
20260508031552 46 278 1.0 1.0 0.00 0.00 0.15 74 1010.0
20260508031052 46 127 0.0 1.0 0.00 0.00 0.15 74 1010.0
20260508030553 46 199 0.0 0.0 0.00 0.00 0.15 74 1009.0
20260508030057 46 269 0.0 0.0 0.00 0.00 0.15 74 1010.0
20260508025553 47 277 0.0 1.0 0.00 0.00 0.15 74 1010.0
20260508025054 47 267 0.0 0.0 0.00 0.00 0.15 74 1010.0
20260508024552 47 265 1.0 1.0 0.00 0.00 0.15 73 1010.0
20260508024052 47 205 0.0 0.0 0.00 0.00 0.15 72 1010.0
20260508023553 47 258 0.0 1.0 0.00 0.00 0.15 73 1010.0
20260508023053 47 0 0.0 0.0 0.00 0.00 0.15 71 1010.0
20260508022553 47 0 0.0 0.0 0.00 0.00 0.15 71 1010.0
20260508022052 47 326 1.0 1.0 0.00 0.00 0.15 71 1010.0
20260508021553 47 343 0.0 0.0 0.00 0.00 0.15 71 1010.0
20260508021052 47 319 0.0 0.0 0.00 0.00 0.15 71 1010.0
20260508020552 47 344 0.0 1.0 0.00 0.00 0.15 70 1010.0
20260508020053 47 266 0.0 1.0 0.00 0.00 0.15 70 1010.0
20260508015553 47 147 0.0 1.0 0.00 0.00 0.15 71 1009.0
20260508015058 48 260 0.0 1.0 0.00 0.00 0.15 71 1009.0
20260508014552 48 208 0.0 1.0 0.00 0.00 0.15 70 1009.0
20260508014053 48 241 0.0 1.0 0.00 0.00 0.15 70 1009.0
20260508013553 48 233 1.0 2.0 0.00 0.00 0.15 69 1009.0
20260508013053 49 257 1.0 1.0 0.00 0.00 0.15 69 1009.0